FW1136 Weather Reports


Display with metric or nautical units.
time (UTC)temp
F
wind
direction
speed
MPH
gust
MPH
rain 1hr
in
rain 24hr
in
rain mn
in
humidity
%
barometer
mb
20260504231016 71 0.0 0.0 0.00 0.00 0.00 33 998.0
20260504230015 70 0.0 4.0 0.00 0.00 0.00 34 998.0
20260504225015 73 0.0 2.0 0.00 0.00 0.00 30 998.0
20260504224016 74 0.0 3.0 0.00 0.00 0.00 31 998.0
20260504223015 75 0.0 0.0 0.00 0.00 0.00 27 997.8
20260504222015 74 0.0 0.0 0.00 0.00 0.00 29 997.8
20260504221015 75 0.0 0.0 0.00 0.00 0.00 23 997.9
20260504220015 76 0.0 0.0 0.00 0.00 0.00 25 998.0
20260504215015 75 0.0 0.0 0.00 0.00 0.00 27 998.1
20260504214015 75 0.0 0.0 0.00 0.00 0.00 26 998.2
20260504213015 74 0.0 0.0 0.00 0.00 0.00 25 998.4
20260504212015 74 0.0 0.0 0.00 0.00 0.00 28 998.5
20260504211015 74 0.0 0.0 0.00 0.00 0.00 25 998.7
20260504210015 73 0.0 0.0 0.00 0.00 0.00 24 998.7
20260504205015 73 0.0 0.0 0.00 0.00 0.00 27 998.8
20260504204037 74 0.0 0.0 0.00 0.00 0.00 29 998.9
20260504203017 75 0.0 0.0 0.00 0.00 0.00 30 999.0
20260504202037 75 0.0 0.0 0.00 0.00 0.00 33 999.0
20260504201017 73 0.0 0.0 0.00 0.00 0.00 29 999.1
20260504200017 73 0.0 0.0 0.00 0.00 0.00 32 999.3
20260504195017 70 0.0 0.0 0.00 0.00 0.00 32 999.4
20260504194018 78 0.0 0.0 0.00 0.00 0.00 29 999.5
20260504193017 74 0.0 0.0 0.00 0.00 0.00 35 999.7
20260504192017 74 0.0 1.0 0.00 0.00 0.00 30 999.8
20260504191017 74 0.0 0.0 0.00 0.00 0.00 29 999.9
20260504190037 76 0.0 0.0 0.00 0.00 0.00 31 1000.0
20260504185017 77 0.0 0.0 0.00 0.00 0.00 30 1000.1
20260504184037 77 0.0 0.0 0.00 0.00 0.00 30 1000.2
20260504183017 75 0.0 0.0 0.00 0.00 0.00 28 1000.4
20260504182037 73 0.0 0.0 0.00 0.00 0.00 32 1000.5
20260504181017 74 0.0 0.0 0.00 0.00 0.00 30 1000.6
20260504180037 74 0.0 0.0 0.00 0.00 0.00 31 1000.7
20260504175017 72 0.0 0.0 0.00 0.00 0.00 32 1000.8
20260504174037 73 0.0 0.0 0.00 0.00 0.00 31 1000.8
20260504173016 74 0.0 0.0 0.00 0.00 0.00 33 1001.0
20260504172016 72 0.0 0.0 0.00 0.00 0.00 35 1001.0
20260504171016 71 0.0 3.0 0.00 0.00 0.00 38 1001.0
20260504151016 59 0.0 0.0 0.00 0.00 0.00 44 1001.4
20260504141016 54 0.0 0.0 0.00 0.00 0.00 49 1001.4
20260504081015 60 0.0 0.0 0.00 0.00 0.00 27 1000.2
20260504045017 63 0.0 0.0 0.00 0.00 0.00 24 1001.3
20260504044037 63 0.0 0.0 0.00 0.00 0.00 23 1001.2
20260504043016 64 0.0 0.0 0.00 0.00 0.00 23 1001.2
20260504042016 64 0.0 0.0 0.00 0.00 0.00 23 1001.2
20260504041016 64 0.0 0.0 0.00 0.00 0.00 23 1001.2
20260504040016 65 0.0 0.0 0.00 0.00 0.00 21 1001.4
20260504035016 65 0.0 0.0 0.00 0.00 0.00 21 1001.4
20260504034016 66 0.0 0.0 0.00 0.00 0.00 21 1001.4
20260504033016 65 0.0 0.0 0.00 0.00 0.00 20 1001.5
20260504032016 66 0.0 0.0 0.00 0.00 0.00 21 1001.4
20260504031016 66 0.0 0.0 0.00 0.00 0.00 21 1001.4
20260504030016 66 0.0 0.0 0.00 0.00 0.00 21 1001.3
20260504025016 66 0.0 0.0 0.00 0.00 0.00 21 1001.3
20260504024016 67 0.0 0.0 0.00 0.00 0.00 21 1001.2
20260504023036 67 0.0 0.0 0.00 0.00 0.00 22 1001.2
20260504022016 66 0.0 0.0 0.00 0.00 0.00 23 1001.3
20260504021036 66 0.0 0.0 0.00 0.00 0.00 24 1001.3
20260504020016 65 0.0 0.0 0.00 0.00 0.00 29 1001.3
20260504015016 66 0.0 0.0 0.00 0.00 0.00 27 1001.4
20260504014016 67 0.0 0.0 0.00 0.00 0.00 28 1001.5
20260504013016 68 0.0 0.0 0.00 0.00 0.00 28 1001.6
20260504012016 69 0.0 0.0 0.00 0.00 0.00 28 1001.7
20260504011016 70 0.0 0.0 0.00 0.00 0.00 24 1001.8
20260504010016 69 0.0 0.0 0.00 0.00 0.00 26 1001.8
20260504005016 70 0.0 0.0 0.00 0.00 0.00 24 1001.9
20260504004016 70 0.0 0.0 0.00 0.00 0.00 22 1002.0
20260504003016 71 0.0 0.0 0.00 0.00 0.00 25 1002.1
20260504002016 71 0.0 0.0 0.00 0.00 0.00 25 1002.2
20260504001016 71 0.0 0.0 0.00 0.00 0.00 23 1002.2
20260504000016 72 0.0 0.0 0.00 0.00 0.00 25 1002.2
20260503235015 71 0.0 0.0 0.00 0.00 0.00 26 1002.3
20260503234016 72 0.0 0.0 0.00 0.00 0.00 22 1002.4
20260503233016 74 0.0 0.0 0.00 0.00 0.00 19 1002.6
20260503232035 74 0.0 0.0 0.00 0.00 0.00 24 1002.7